Location: Newark
(45.5000°N, 11.4167°E)
Time: 07:24:00
(UTC+00:00)

Tiros 1 despin weight - All Passes

Search period start: 24 August 2019 00:00
Search period end: 03 September 2019 00:00
Orbit: 594 x 642 km, 48.2° (Epoch: 24 August)

Date Brightness Start Highest point End Pass type
(mag) Time Alt. Az. Time Alt. Az. Time Alt. Az.
24 Aug - 00:54:15 10° W 00:58:42 61° N 01:03:14 10° E visible
24 Aug - 02:35:57 10° WNW 02:40:30 90° NNE 02:45:07 10° ESE visible
24 Aug - 04:17:48 10° W 04:21:46 29° SW 04:25:45 10° SSE daylight
24 Aug - 21:47:57 10° SW 21:52:09 43° SSE 21:56:24 10° ENE night (unlit)
24 Aug - 23:29:08 10° W 23:33:36 73° NNW 23:38:08 10° ENE visible
25 Aug - 01:10:58 10° WNW 01:15:27 64° N 01:20:00 10° E visible
25 Aug - 02:52:36 10° WNW 02:57:06 63° SSW 03:01:39 10° SE visible
25 Aug - 04:35:08 10° W 04:38:04 17° SW 04:41:01 10° S daylight
25 Aug - 20:24:37 10° S 20:27:40 18° SE 20:30:45 10° E night (unlit)
25 Aug - 22:04:15 10° WSW 22:08:39 69° SSE 22:13:08 10° ENE night (unlit)
25 Aug - 23:45:54 10° W 23:50:19 62° N 23:54:50 10° ENE visible
26 Aug - 01:27:39 10° WNW 01:32:10 77° NNE 01:36:45 10° ESE visible
26 Aug - 03:09:22 10° WNW 03:13:35 39° SSW 03:17:52 10° SE visible
26 Aug - 20:40:04 10° SSW 20:43:58 32° SE 20:47:57 10° E night (unlit)
26 Aug - 22:20:49 10° WSW 22:25:16 84° NNW 22:29:47 10° ENE night (unlit)
27 Aug - 00:02:38 10° WNW 00:07:05 61° N 00:11:35 10° E visible
27 Aug - 01:44:18 10° WNW 01:48:49 79° SSW 01:53:23 10° ESE visible
27 Aug - 03:26:22 10° W 03:29:57 23° SW 03:33:35 10° SSE visible
27 Aug - 19:17:37 10° SSE 19:19:36 13° SE 19:21:36 10° ESE visible
27 Aug - 20:56:06 10° SW 21:00:25 53° SSE 21:04:46 10° ENE visible
27 Aug - 22:37:32 10° W 22:41:58 67° N 22:46:27 10° ENE night (unlit)
28 Aug - 00:19:21 10° WNW 00:23:49 68° N 00:28:21 10° E visible
28 Aug - 02:00:59 10° WNW 02:05:22 52° SSW 02:09:49 10° SE visible
28 Aug - 03:44:10 10° WSW 03:46:12 13° SW 03:48:14 10° SSW visible
28 Aug - 19:32:20 10° SSW 19:35:51 23° SE 19:39:23 10° E visible
28 Aug - 21:12:32 10° WSW 21:16:58 81° SSE 21:21:27 10° ENE visible
28 Aug - 22:54:18 10° W 22:58:42 60° N 23:03:11 10° E night (unlit)
29 Aug - 00:36:00 10° WNW 00:40:30 86° NNE 00:45:04 10° ESE night (unlit)
29 Aug - 02:17:48 10° W 02:21:48 31° SW 02:25:51 10° SSE visible
29 Aug - 19:48:06 10° SW 19:52:13 40° SSE 19:56:22 10° ENE visible
29 Aug - 21:29:11 10° W 21:33:37 75° NNW 21:38:06 10° ENE visible
29 Aug - 23:11:01 10° WNW 23:15:27 63° N 23:19:57 10° E night (unlit)
30 Aug - 00:52:39 10° WNW 00:57:07 67° SSW 01:01:38 10° ESE night (unlit)
30 Aug - 02:35:02 10° W 02:38:07 18° SW 02:41:13 10° S visible
30 Aug - 18:24:56 10° S 18:27:45 17° SE 18:30:35 10° E visible
30 Aug - 20:04:20 10° SW 20:08:42 65° SSE 20:13:07 10° ENE visible
30 Aug - 21:45:56 10° W 21:50:20 63° N 21:54:48 10° ENE visible
30 Aug - 23:27:42 10° WNW 23:32:11 74° NNE 23:36:42 10° E night (unlit)
31 Aug - 01:09:23 10° WNW 01:13:37 42° SSW 01:17:54 10° SE night (unlit)
31 Aug - 18:40:14 10° SSW 18:44:03 29° SE 18:47:54 10° E visible
31 Aug - 20:20:52 10° WSW 20:25:18 87° NNW 20:29:46 10° ENE visible
31 Aug - 22:02:41 10° W 22:07:05 60° N 22:11:32 10° E visible
31 Aug - 23:44:21 10° WNW 23:48:50 83° SSW 23:53:21 10° ESE night (unlit)
01 Sep - 01:26:20 10° W 01:30:00 25° SW 01:33:42 10° SSE night (unlit)
01 Sep - 17:18:12 10° SSE 17:19:43 12° SE 17:21:12 10° ESE daylight
01 Sep - 18:56:12 10° SW 19:00:28 49° SSE 19:04:45 10° ENE visible
01 Sep - 20:37:34 10° W 20:41:59 69° N 20:46:26 10° ENE visible
01 Sep - 22:19:24 10° WNW 22:23:49 66° N 22:28:17 10° E visible
02 Sep - 00:01:02 10° WNW 00:05:23 55° SSW 00:09:49 10° SE night (unlit)
02 Sep - 01:43:57 10° WSW 01:46:16 14° SW 01:48:35 10° SSW night (unlit)
02 Sep - 17:32:34 10° S 17:35:56 21° SE 17:39:17 10° E daylight
02 Sep - 19:12:36 10° WSW 19:17:00 77° SSE 19:21:27 10° ENE visible
02 Sep - 20:54:20 10° W 20:58:42 61° N 21:03:08 10° ENE visible
02 Sep - 22:36:03 10° WNW 22:40:31 83° NNE 22:45:01 10° ESE visible
